Regional Weather Roundup
Issued by NWS

Home | Current Version | Previous Version | Graphics & Text | Print | Product List | Glossary On
Versions: 1 2 3 4 5 6 7 8 9 10 11 12 13 14 15 16 17 18 19 20 21 22 23 24 25 26 27 28 29 30 31 32 33 34 35 36 37 38 39 40 41 42 43 44 45 46 47 48 49 50
000
ASUS43 KOAX 240410
RWRNE

WEATHER ROUNDUP FOR NEBRASKA
NATIONAL WEATHER SERVICE OMAHA NE
1100 PM CDT SAT MAY 23 2015

NOTES: SATELLITE DATA IS BEING USED TO AUGMENT CLOUD COVER ABOVE
       12000 FEET.
       "FAIR" INDICATES FEW OR NO CLOUDS BELOW 12,000 FEET WITH NO
       SIGNIFICANT WEATHER AND/OR OBSTRUCTIONS TO VISIBILITY.

  * THESE STATIONS DO NOT REPORT WEATHER SUCH AS RAIN...SNOW OR FOG.

NEZ001>004-019>022-054>056-240500-
NEBRASKA PANHANDLE

CITY           SKY/WX    TMP DP  RH WIND       PRES   REMARKS
SCOTTSBLUFF    LGT RAIN  55  53  93 E15       29.92F
ALLIANCE       CLOUDY    54  52  93 E16       29.96S
CHADRON        CLOUDY    55  52  89 E9        29.98S
KIMBALL          N/A    N/A N/A N/A MISG        N/A
SIDNEY         LGT RAIN  51  47  86 E13       29.94F
$$

NEZ057>060-069>072-079>082-240500-
SOUTHWEST NEBRASKA

CITY           SKY/WX    TMP DP  RH WIND       PRES   REMARKS
NORTH PLATTE   CLOUDY    56  54  93 E17       29.97R
IMPERIAL       CLOUDY    57  54  89 E17       29.91F
LEXINGTON      CLOUDY    58  57  95 E10       29.97F FOG
MCCOOK         CLOUDY    57  55  93 E13       29.93F
OGALLALA       CLOUDY    55  54  97 E14       29.95S FOG
$$

NEZ005>010-023>029-035>040-094-240500-
NORTH CENTRAL NEBRASKA

CITY           SKY/WX    TMP DP  RH WIND       PRES   REMARKS
VALENTINE      CLOUDY    55  53  93 E12       30.02S
AINSWORTH      RAIN      55  55  99 E12       30.02F
BROKEN BOW     LGT RAIN  57  55  93 E12       30.00R FOG
O`NEILL        CLOUDY    57  56  98 E8        30.05S FOG
ORD            LGT RAIN  56  55  97 E8        30.00F FOG
THEDFORD       CLOUDY    55  54  97 E14G21    30.00S FOG
$$

NEZ041-046>049-061>064-073>077-083>087-240500-
SOUTH CENTRAL NEBRASKA

CITY           SKY/WX    TMP DP  RH WIND       PRES   REMARKS
GRAND ISLAND   CLOUDY    59  57  93 E10       29.99F
AURORA         CLOUDY    60  60  99 E12       29.99F
HASTINGS       CLOUDY    59  57  93 E14       29.97F
HEBRON         CLOUDY    59  57  92 CALM      29.97S
HOLDREGE       CLOUDY    57  56  94 E9        29.97R
KEARNEY *      CLOUDY    57  55  94 E13       29.97F
YORK           CLOUDY    59  59 100 E12       30.00S
$$

NEZ011>018-030>034-042>045-240500-
NORTHEAST NEBRASKA

CITY           SKY/WX    TMP DP  RH WIND       PRES   REMARKS
NORFOLK        LGT RAIN  59  58  96 E6        30.04S FOG
ALBION         LGT RAIN  58  55  91 E12       30.01F
BLAIR          CLOUDY    61  58  90 NE10      30.00F
COLUMBUS *     CLOUDY    59  54  82 E8        30.05F
FREMONT        CLOUDY    62  59  89 NE8       30.01F
TEKAMAH        CLOUDY    62  60  93 E8        30.03F
WAYNE          LGT RAIN  59  57  95 E3        30.06R
$$

NEZ050>053-065>068-078-088>093-240500-
SOUTHEAST NEBRASKA

CITY           SKY/WX    TMP DP  RH WIND       PRES   REMARKS
LINCOLN        CLOUDY    62  60  93 E5        30.00R
OMAHA EPPLEY   CLOUDY    62  60  93 E9        30.01F
BEATRICE       CLOUDY    61  59  93 E10       29.99R
FALLS CITY     CLOUDY    62  60  93 E18G25    29.96S
NEBRASKA CITY  CLOUDY    62  61  99 E9        29.99F
PLATTSMOUTH    CLOUDY    61  59  92 E13       30.00F
$$

NEZ044-045-051>053-067-240500-
OMAHA AREA

CITY           SKY/WX    TMP DP  RH WIND       PRES   REMARKS
OMAHA EPPLEY   CLOUDY    62  60  93 E9        30.01F
BLAIR          CLOUDY    61  58  90 NE10      30.00F
FREMONT        CLOUDY    62  59  89 NE8       30.01F
MILLARD        CLOUDY    63  60  90 E6        29.98F
OFFUTT AFB     CLOUDY    62  60  92 E7        29.99F
PLATTSMOUTH    CLOUDY    61  59  92 E13       30.00F
WAHOO          CLOUDY    62  59  91 E6        30.01R
$$


USA.gov is the U.S. government's official web portal to all federal, state and local government web resources and services.